Tiempo atmosférico en la estación meteorológica de Sant Hilari, Girona (810 m.)



Fecha
DESCASC
Temp. máxima en grados centígrados (hora)
DESCASC
Temp. mínima en grados centígrados (hora)
DESCASC
Temp. media en grados centígrados
DESCASC
Racha de viento máxima en m/sg (hora)
DESCASC
Velocidad máxima media en intervalos de 10 minutos(hora)
DESCASC
Precipitaciones diarias en mm
DESCASC
Precipitaciones de 00:00 a 06:00 en mm
DESCASC
Precipitaciones de 06:00 a 12:00 en mm
DESCASC
Precipitaciones de 12:00 a 18:00 en mm
DESCASC
Precipitaciones de 18:00 a 24:00 en mm
DESCASC
05-12-2019 6.7 (19:40) 5.5 (11:10) 6.1 16.39 (09:00) 7.22 (08:50) 33.4 23.8 4.8 4 0.8
04-12-2019 6.5 (00:00) 6.1 (18:10) 6.3 14.17 (07:20) 5 (01:20) 100.6 3 21.2 34.4 42
03-12-2019 7.7 (13:20) -1.2 (-00:0) 3.2 8.61 (23:50) 3.89 (00:50) 0.2 0 0 0 0.2
02-12-2019 11.3 (12:30) -0.1 (00:00) 5.6 5.28 (23:59) 3.61 (23:50) 0 0 0 0 0
01-12-2019 11.5 (14:00) 3.3 (00:00) 7.4 5.56 (14:10) 3.06 (12:10) 0 0 0 0 0
30-11-2019 14.6 (14:20) 2.5 (00:00) 8.6 13.06 (13:00) 6.67 (13:10) 0 0 0 0 0
29-11-2019 12.1 (11:50) 4.9 (00:00) 8.5 9.17 (04:20) 3.89 (04:00) 0 0 0 0 0
28-11-2019 13.4 (13:20) 6.4 (00:00) 9.9 13.61 (22:10) 7.22 (09:10) 0 0 0 0 0
27-11-2019 14.1 (12:40) 8.2 (00:00) 11.2 17.5 (06:50) 9.44 (04:00) 0 0 0 0 0
26-11-2019 13.1 (21:30) 2 (00:00) 7.6 15.83 (20:40) 9.17 (20:40) 0 0 0 0 0
25-11-2019 14.6 (13:30) 1.6 (00:00) 8.1 9.44 (00:30) 5.83 (00:40) 0 0 0 0 0
24-11-2019 12.6 (15:40) 3.1 (00:00) 7.9 10 (23:00) 5.56 (02:40) 0 0 0 0 0
23-11-2019 10.1 (00:50) 5.4 (00:00) 7.8 13.33 (07:10) 8.33 (06:00) 5.8 5.8 0 0 0
22-11-2019 10.8 (14:00) 4.6 (00:00) 7.7 10 (01:20) 5.83 (01:00) 14.8 0 0.8 0 14
21-11-2019 11.2 (14:20) 2.4 (00:00) 6.8 12.5 (19:20) 7.22 (18:40) 0 0 0 0 0
20-11-2019 9.3 (14:10) -2.8 (-00:0) 3.3 10 (13:30) 5.28 (12:10) 0 0 0 0 0
19-11-2019 9.2 (15:20) -1.8 (-00:0) 3.7 7.5 (08:00) 4.44 (07:20) 0 0 0 0 0
18-11-2019 9.4 (16:30) -0.9 (-00:0) 4.2 7.78 (13:20) 3.61 (12:30) 0 0 0 0 0
17-11-2019 8.3 (15:40) 0.3 (00:00) 4.3 10.28 (11:30) 6.67 (11:30) 0 0 0 0 0
16-11-2019 8.9 (15:00) -2.6 (-00:0) 3.1 8.61 (19:10) 5.56 (19:10) 0 0 0 0 0
15-11-2019 6.8 (15:40) -1.9 (-00:0) 2.5 10 (20:40) 5.28 (20:40) 0.4 0 0.4 0 0
14-11-2019 9.5 (09:20) 0.3 (00:00) 4.9 10.83 (04:40) 5.28 (12:00) 2.4 0 0.4 1.8 0.2
13-11-2019 9.7 (14:10) 0.1 (00:00) 4.9 6.67 (14:00) 3.61 (14:00) 0 0 0 0 0
12-11-2019 11.2 (14:40) 0 (00:00) 5.6 6.11 (06:20) 3.61 (08:50) 0 0 0 0 0
11-11-2019 13.6 (13:50) -1.3 (05:00) 6.2 7.22 (18:30) 3.89 (20:20) 0.2 0 0.2 0 0
10-11-2019 9 (15:00) -0.5 (-00:0) 4.3 9.17 (05:10) 3.89 (00:30) 7 7 0 0 0
09-11-2019 10.9 (13:20) 0.7 (00:00) 5.8 8.61 (14:00) 5.28 (19:20) 0 0 0 0 0
08-11-2019 8.2 (13:50) 0.6 (00:00) 4.4 10.56 (17:40) 5.83 (17:40) 0 0 0 0 0
07-11-2019 10.5 (10:30) 1.4 (00:00) 5.9 12.22 (07:10) 6.94 (07:30) 0 0 0 0 0
06-11-2019 11.7 (14:10) 3.8 (00:00) 7.7 10.28 (01:20) 5.28 (01:20) 0 0 0 0 0

Gráficas

Temp. máximas Temp. mínimas Temp. medias Precipitaciones Rachas de viento máximas Velocidades máximas media en intervalos de 10 minutos

Datos horarios

Fecha y hora oficial Temperatura (ºC) Velocidad del viento (km/h) Dirección del viento Racha (km/h) Dirección de racha Precipitación (mm) Presión (hPa) Tendencia (hPa) Humedad (%)
2019-12-05 23:00:00 6.1 4 Noroeste 19 Norte 0 -- -- 95
2019-12-05 22:00:00 6.2 9 Norte 22 Norte 0.2 -- -- 96
2019-12-05 21:00:00 6.3 5 Norte 18 Noroeste 0 -- -- 95
2019-12-05 20:00:00 6.6 7 Norte 21 Nordeste 0.2 -- -- 90
2019-12-05 19:00:00 6.5 6 Norte 24 Norte 0.2 -- -- 91
2019-12-05 18:00:00 6.2 9 Norte 29 Nordeste 0.4 -- -- 95
2019-12-05 17:00:00 6 12 Norte 30 Noroeste 0.4 -- -- 95
2019-12-05 16:00:00 6 15 Norte 34 Nordeste 0.6 -- -- 96
2019-12-05 15:00:00 5.8 13 Norte 38 Nordeste 1 -- -- 96
2019-12-05 14:00:00 5.8 14 Norte 44 Nordeste 1.2 -- -- 97
2019-12-05 13:00:00 5.6 22 Nordeste 48 Nordeste 0.4 -- -- 97
2019-12-05 12:00:00 5.7 19 Nordeste 51 Nordeste 0.8 -- -- 96
2019-12-05 11:00:00 5.6 25 Nordeste 51 Nordeste 0.2 -- -- 94
2019-12-05 10:00:00 5.8 23 Norte 55 Norte 0.2 -- -- 97
2019-12-05 09:00:00 5.8 25 Nordeste 59 Nordeste 0.6 -- -- 99
2019-12-05 08:00:00 5.7 19 Nordeste 39 Nordeste 1.4 -- -- 100
2019-12-05 07:00:00 5.8 18 Nordeste 39 Nordeste 1.6 -- -- 100
2019-12-05 06:00:00 5.9 15 Nordeste 40 Nordeste 1.6 -- -- 100
2019-12-05 05:00:00 5.8 13 Norte 32 Nordeste 2.2 -- -- 100
2019-12-05 04:00:00 6 12 Norte 32 Norte 4.2 -- -- 100
2019-12-05 03:00:00 6.1 11 Nordeste 36 Norte 4.4 -- -- 100
2019-12-05 02:00:00 6.1 12 Nordeste 44 Norte 5.6 -- -- 100
2019-12-05 01:00:00 6.1 14 Norte 40 Nordeste 5.8 -- -- 100
2019-12-05 00:00:00 6.2 13 Nordeste 35 Nordeste 7.6 -- -- 100
2019-12-04 23:00:00 6.5 13 Norte 40 Nordeste 8.4 -- -- 100
2019-12-04 22:00:00 6.3 14 Norte 39 Nordeste 7 -- -- 100
2019-12-04 21:00:00 6.3 12 Norte 34 Nordeste 6.2 -- -- 100
2019-12-04 20:00:00 6.3 13 Nordeste 32 Nordeste 5.4 -- -- 100
2019-12-04 19:00:00 6.2 12 Nordeste 31 Norte 7.4 -- -- 100
2019-12-04 18:00:00 6.2 13 Norte 35 Nordeste 5.2 -- -- 100
2019-12-04 17:00:00 6.2 12 Norte 33 Norte 5.8 -- -- 100
2019-12-04 16:00:00 6.4 12 Norte 36 Nordeste 8.2 -- -- 100
2019-12-04 15:00:00 6.4 12 Nordeste 41 Nordeste 6.2 -- -- 100
2019-12-04 14:00:00 6.3 16 Nordeste 39 Este 3.8 -- -- 100
2019-12-04 13:00:00 6.3 15 Nordeste 39 Nordeste 5.2 -- -- 100
2019-12-04 12:00:00 6.4 11 Nordeste 33 Norte 6.4 -- -- 100
2019-12-04 11:00:00 6.4 14 Norte 39 Nordeste 5 -- -- 100
2019-12-04 10:00:00 6.3 14 Norte 44 Nordeste 3.2 -- -- 99
2019-12-04 09:00:00 6.4 13 Nordeste 41 Nordeste 1.4 -- -- 99
2019-12-04 08:00:00 6.4 13 Norte 51 Norte 1 -- -- 99
2019-12-04 07:00:00 6.2 14 Nordeste 39 Norte 4.2 -- -- 99
2019-12-04 06:00:00 6.2 12 Nordeste 42 Este 0.8 -- -- 99
2019-12-04 05:00:00 6.3 14 Norte 41 Nordeste 0.8 -- -- 99
2019-12-04 04:00:00 6.4 12 Nordeste 33 Nordeste 0.4 -- -- 99
2019-12-04 03:00:00 6.4 15 Nordeste 32 Nordeste 0.4 -- -- 98
2019-12-04 02:00:00 6.4 10 Norte 30 Nordeste 0.4 -- -- 98
2019-12-04 01:00:00 6.3 10 Norte 31 Nordeste 0.2 -- -- 98
2019-12-04 00:00:00 6.5 10 Norte 31 Nordeste 0.2 -- -- 97
2019-12-03 23:00:00 6.6 12 Nordeste 27 Nordeste 0 -- -- 95
2019-12-03 22:00:00 6.5 8 Norte 29 Este 0 -- -- 95
2019-12-03 21:00:00 6.7 8 Nordeste 23 Nordeste 0 -- -- 93
2019-12-03 20:00:00 6.5 10 Norte 27 Nordeste 0 -- -- 94
2019-12-03 19:00:00 6.4 8 Nordeste 22 Norte 0 -- -- 92
2019-12-03 18:00:00 6.4 9 Norte 20 Nordeste 0 -- -- 88
2019-12-03 17:00:00 6.5 8 Nordeste 23 Nordeste 0 -- -- 88
2019-12-03 16:00:00 7 9 Nordeste 26 Nordeste 0 -- -- 83
2019-12-03 15:00:00 7.2 11 Nordeste 25 Nordeste 0 -- -- 76
2019-12-03 14:00:00 7.1 10 Nordeste 25 Nordeste 0 -- -- 73
2019-12-03 13:00:00 7.3 10 Nordeste 25 Nordeste 0 -- -- 70
2019-12-03 12:00:00 7.1 8 Nordeste 24 Norte 0 -- -- 70
2019-12-03 11:00:00 6.1 9 Nordeste 18 Este 0 -- -- 63
2019-12-03 10:00:00 2.7 3 Nordeste 12 Nordeste 0 -- -- 78
2019-12-03 09:00:00 0.3 7 Nordeste 14 Norte 0 -- -- 98
2019-12-03 08:00:00 -1 2 Norte 5 Norte 0 -- -- 98
2019-12-03 07:00:00 -0.7 3 Norte 4 Noroeste 0 -- -- 98
2019-12-03 06:00:00 -0.5 2 Norte 4 Norte 0 -- -- 98
2019-12-03 05:00:00 -0.2 2 Norte 4 Noroeste 0 -- -- 97
2019-12-03 04:00:00 0.5 0 Calma 6 Noroeste 0 -- -- 95
2019-12-03 03:00:00 1.5 2 Oeste 5 Noroeste 0 -- -- 93
2019-12-03 02:00:00 3.1 3 Norte 17 Noroeste 0 -- -- 89
2019-12-03 01:00:00 4 12 Noroeste 23 Noroeste 0 -- -- 86
2019-12-03 00:00:00 3.9 12 Norte 19 Norte 0 -- -- 89
2019-12-02 23:00:00 1.3 4 Norte 9 Norte 0 -- -- 97
2019-12-02 22:00:00 1.3 4 Noroeste 4 Noroeste 0 -- -- 96
2019-12-02 21:00:00 1.6 0 Calma 6 Norte 0 -- -- 95
2019-12-02 20:00:00 2 3 Noroeste 5 Norte 0 -- -- 93
2019-12-02 19:00:00 3.4 0 Calma 4 Noroeste 0 -- -- 91
2019-12-02 18:00:00 5.7 0 Calma 3 Sudoeste 0 -- -- 83
2019-12-02 17:00:00 8 2 Sudoeste 8 Sur 0 -- -- 75
2019-12-02 16:00:00 9.3 0 Calma 9 Sur 0 -- -- 69
2019-12-02 15:00:00 11.2 4 Sudeste 12 Sur 0 -- -- 65
2019-12-02 14:00:00 9.9 5 Sur 12 Sur 0 -- -- 64
2019-12-02 13:00:00 10.9 6 Sur 10 Sur 0 -- -- 62
2019-12-02 12:00:00 10.1 0 Calma 10 Sur 0 -- -- 66
2019-12-02 11:00:00 7.4 4 Sur 10 Sur 0 -- -- 75
2019-12-02 10:00:00 2.5 0 Calma 8 Norte 0 -- -- 99
2019-12-02 09:00:00 0.6 4 Noroeste 6 Norte 0 -- -- 98
2019-12-02 08:00:00 -0.1 3 Noroeste 5 Noroeste 0 -- -- 97
2019-12-02 07:00:00 0.5 3 Noroeste 5 Noroeste 0 -- -- 97
2019-12-02 06:00:00 0.3 0 Calma 5 Nordeste 0 -- -- 95
2019-12-02 05:00:00 1.4 0 Calma 4 Nordeste 0 -- -- 93
2019-12-02 04:00:00 1.6 2 Sudoeste 11 Norte 0 -- -- 90
2019-12-02 03:00:00 0.9 6 Norte 10 Noroeste 0 -- -- 93
2019-12-02 02:00:00 1.8 2 Norte 5 Nordeste 0 -- -- 87
2019-12-02 01:00:00 2.9 2 Noroeste 8 Noroeste 0 -- -- 84
2019-12-02 00:00:00 3.4 5 Norte 12 Nordeste 0 -- -- 83
2019-12-01 23:00:00 3.8 5 Norte 10 Noroeste 0 -- -- 89
2019-12-01 22:00:00 5.3 5 Noroeste 9 Noroeste 0 -- -- 95
2019-12-01 21:00:00 6.3 3 Norte 4 Norte 0 -- -- 94
2019-12-01 20:00:00 6.8 3 Noroeste 8 Nordeste 0 -- -- 94
2019-12-01 19:00:00 7.4 3 Nordeste 9 Sudeste 0 -- -- 95
2019-12-01 18:00:00 7.7 2 Nordeste 8 Este 0 -- -- 94
2019-12-01 17:00:00 8.4 2 Este 9 Este 0 -- -- 92
2019-12-01 16:00:00 9.5 3 Este 9 Este 0 -- -- 88
2019-12-01 15:00:00 10.8 2 Este 20 Noroeste 0 -- -- 83
2019-12-01 14:00:00 11.5 5 Oeste 14 Noroeste 0 -- -- 65
2019-12-01 13:00:00 10.8 4 Norte 17 Noroeste 0 -- -- 78
2019-12-01 12:00:00 10.9 6 Norte 19 Noroeste 0 -- -- 75
2019-12-01 11:00:00 9.6 3 Noroeste 10 Noroeste 0 -- -- 84
2019-12-01 10:00:00 7.7 6 Norte 10 Norte 0 -- -- 94
2019-12-01 09:00:00 7.5 2 Oeste 7 Sur 0 -- -- 95
2019-12-01 08:00:00 7.7 4 Sudeste 8 Sur 0 -- -- 94
2019-12-01 07:00:00 8.1 0 Calma 12 Norte 0 -- -- 87
2019-12-01 06:00:00 8.8 6 Norte 14 Norte 0 -- -- 84
2019-12-01 05:00:00 8.9 0 Calma 14 Oeste 0 -- -- 88
2019-12-01 04:00:00 9.1 5 Oeste 15 Sudoeste 0 -- -- 86
2019-12-01 03:00:00 8.2 5 Oeste 16 Noroeste 0 -- -- 95
2019-12-01 02:00:00 7.1 0 Calma 6 Oeste 0 -- -- 93
2019-12-01 01:00:00 7.8 0 Calma 5 Oeste 0 -- -- 90
2019-12-01 00:00:00 9.3 2 Norte 17 Oeste 0 -- -- 83
2019-11-30 23:00:00 10.9 8 Oeste 17 Oeste 0 -- -- 78
2019-11-30 22:00:00 10.5 6 Sudoeste 15 Oeste 0 -- -- 79
2019-11-30 21:00:00 10.5 9 Noroeste 22 Noroeste 0 -- -- 79
2019-11-30 20:00:00 11.1 12 Noroeste 27 Noroeste 0 -- -- 77
2019-11-30 19:00:00 11.4 10 Noroeste 31 Noroeste 0 -- -- 76
2019-11-30 18:00:00 11.4 8 Oeste 23 Noroeste 0 -- -- 76
2019-11-30 17:00:00 12.7 6 Sudoeste 28 Noroeste 0 -- -- 72
2019-11-30 16:00:00 14.2 12 Oeste 35 Oeste 0 -- -- 67
2019-11-30 15:00:00 14.3 18 Oeste 44 Sudoeste 0 -- -- 67
2019-11-30 14:00:00 14.5 18 Oeste 45 Sudoeste 0 -- -- 64
2019-11-30 13:00:00 13.8 22 Oeste 47 Sudoeste 0 -- -- 65
2019-11-30 12:00:00 13.1 14 Oeste 32 Oeste 0 -- -- 68
2019-11-30 11:00:00 11.5 15 Oeste 36 Oeste 0 -- -- 74
2019-11-30 10:00:00 10.1 12 Oeste 32 Oeste 0 -- -- 77
2019-11-30 09:00:00 8.1 10 Oeste 26 Oeste 0 -- -- 82
2019-11-30 08:00:00 3.7 2 Oeste 12 Oeste 0 -- -- 99
2019-11-30 07:00:00 2.8 3 Noroeste 5 Noroeste 0 -- -- 99
2019-11-30 06:00:00 2.7 0 Calma 5 Noroeste 0 -- -- 98
2019-11-30 05:00:00 3.7 0 Calma 4 Norte 0 -- -- 97
2019-11-30 04:00:00 4.4 0 Calma 4 Norte 0 -- -- 98
2019-11-30 03:00:00 4.6 2 Noroeste 4 Sur 0 -- -- 98
2019-11-30 02:00:00 4.9 0 Calma 5 Sur 0 -- -- 98
2019-11-30 01:00:00 5.6 3 Nordeste 9 Norte 0 -- -- 98
2019-11-30 00:00:00 5.1 3 Norte 6 Nordeste 0 -- -- 97
2019-11-29 23:00:00 5.2 3 Noroeste 4 Norte 0 -- -- 96
2019-11-29 22:00:00 6.1 0 Calma 3 Nordeste 0 -- -- 96
2019-11-29 21:00:00 6.8 0 Calma 6 Norte 0 -- -- 95
2019-11-29 20:00:00 8 0 Calma 4 Norte 0 -- -- 93
2019-11-29 19:00:00 8.7 0 Calma 5 Sur 0 -- -- 93
2019-11-29 18:00:00 9 3 Sur 7 Sudeste 0 -- -- 90
2019-11-29 17:00:00 9.4 4 Sur 13 Sudeste 0 -- -- 91
2019-11-29 16:00:00 10.1 8 Sur 15 Sur 0 -- -- 90
2019-11-29 15:00:00 10.7 8 Sur 14 Sur 0 -- -- 83
2019-11-29 14:00:00 11.3 4 Sur 10 Sur 0 -- -- 80
2019-11-29 13:00:00 11.2 3 Este 10 Sur 0 -- -- 79
2019-11-29 12:00:00 12 5 Sur 14 Sur 0 -- -- 74
2019-11-29 11:00:00 11 4 Este 9 Nordeste 0 -- -- 79
2019-11-29 10:00:00 9.1 3 Nordeste 21 Noroeste 0 -- -- 84
2019-11-29 09:00:00 8.5 12 Noroeste 24 Noroeste 0 -- -- 87
2019-11-29 08:00:00 8.4 4 Sur 16 Sur 0 -- -- 85
2019-11-29 07:00:00 8.5 5 Sur 15 Sur 0 -- -- 84
2019-11-29 06:00:00 8 5 Noroeste 12 Noroeste 0 -- -- 86
2019-11-29 05:00:00 8.4 4 Norte 33 Noroeste 0 -- -- 84
2019-11-29 04:00:00 8.6 14 Noroeste 28 Noroeste 0 -- -- 84
2019-11-29 03:00:00 8.5 7 Noroeste 22 Noroeste 0 -- -- 84
2019-11-29 02:00:00 9 7 Noroeste 26 Noroeste 0 -- -- 81
2019-11-29 01:00:00 9.8 13 Noroeste 28 Oeste 0 -- -- 77
2019-11-29 00:00:00 9.7 11 Noroeste 37 Noroeste 0 -- -- 79
2019-11-28 23:00:00 10.1 18 Noroeste 49 Noroeste 0 -- -- 78
2019-11-28 22:00:00 10.3 19 Noroeste 36 Noroeste 0 -- -- 77
2019-11-28 21:00:00 10.1 13 Noroeste 36 Oeste 0 -- -- 77
2019-11-28 20:00:00 10.4 15 Oeste 34 Oeste 0 -- -- 75
2019-11-28 19:00:00 10.1 23 Noroeste 36 Oeste 0 -- -- 76
2019-11-28 18:00:00 9.7 15 Noroeste 30 Noroeste 0 -- -- 78
2019-11-28 17:00:00 10.7 18 Noroeste 30 Oeste 0 -- -- 72
2019-11-28 16:00:00 12.7 4 Noroeste 28 Noroeste 0 -- -- 64
2019-11-28 15:00:00 13.2 11 Noroeste 33 Noroeste 0 -- -- 61
2019-11-28 14:00:00 12.7 14 Noroeste 26 Norte 0 -- -- 61
2019-11-28 13:00:00 12.5 11 Norte 27 Norte 0 -- -- 61
2019-11-28 12:00:00 11.5 8 Norte 39 Norte 0 -- -- 63
2019-11-28 11:00:00 9.6 19 Norte 42 Noroeste 0 -- -- 72
2019-11-28 10:00:00 8 23 Noroeste 45 Oeste 0 -- -- 79
2019-11-28 09:00:00 7.4 23 Noroeste 40 Noroeste 0 -- -- 81
2019-11-28 08:00:00 7.4 21 Noroeste 40 Noroeste 0 -- -- 80
2019-11-28 07:00:00 6.6 19 Noroeste 33 Norte 0 -- -- 84
2019-11-28 06:00:00 6.5 15 Noroeste 36 Norte 0 -- -- 85
2019-11-28 05:00:00 6.9 16 Noroeste 31 Oeste 0 -- -- 84
2019-11-28 04:00:00 7.3 15 Noroeste 26 Noroeste 0 -- -- 81
2019-11-28 03:00:00 8 16 Noroeste 41 Noroeste 0 -- -- 76
2019-11-28 02:00:00 8.8 20 Noroeste 40 Oeste 0 -- -- 70
2019-11-28 01:00:00 8.7 18 Noroeste 40 Oeste 0 -- -- 68
2019-11-28 00:00:00 8.6 17 Noroeste 30 Noroeste 0 -- -- 69
2019-11-27 23:00:00 8.7 13 Noroeste 27 Noroeste 0 -- -- 73
2019-11-27 22:00:00 8.9 8 Noroeste 21 Norte 0 -- -- 73
2019-11-27 21:00:00 9.1 8 Norte 32 Sudoeste 0 -- -- 73
2019-11-27 20:00:00 8.9 11 Noroeste 37 Noroeste 0 -- -- 75
2019-11-27 19:00:00 9.1 22 Noroeste 37 Noroeste 0 -- -- 75
2019-11-27 18:00:00 9.2 7 Noroeste 25 Oeste 0 -- -- 75
2019-11-27 17:00:00 10.2 7 Sudoeste 27 Oeste 0 -- -- 72
2019-11-27 16:00:00 11.3 6 Norte 17 Noroeste 0 -- -- 67
2019-11-27 15:00:00 10.4 3 Sur 16 Sur 0 -- -- 86
2019-11-27 14:00:00 11.8 9 Sur 20 Sudeste 0 -- -- 80
2019-11-27 06:00:00 -- -- -- -- -- -- -- -- --
2019-11-27 05:00:00 11.8 24 Noroeste 50 Noroeste 0 -- -- 75
2019-11-27 04:00:00 12.4 34 Noroeste 54 Noroeste 0 -- -- 72
2019-11-27 03:00:00 12.3 18 Oeste 36 Oeste 0 -- -- 74
2019-11-27 02:00:00 11.9 9 Noroeste 30 Oeste 0 -- -- 75
2019-11-27 01:00:00 12.1 17 Noroeste 40 Noroeste 0 -- -- 73
2019-11-27 00:00:00 12.1 21 Noroeste 48 Oeste 0 -- -- 74
2019-11-26 23:00:00 12.6 23 Noroeste 49 Noroeste 0 -- -- 71
2019-11-26 22:00:00 12.7 24 Noroeste 52 Noroeste 0 -- -- 70
2019-11-26 21:00:00 12.3 28 Noroeste 57 Oeste 0 -- -- 70
2019-11-26 20:00:00 10 24 Noroeste 51 Noroeste 0 -- -- 76
2019-11-26 19:00:00 10.3 24 Noroeste 42 Noroeste 0 -- -- 76
2019-11-26 18:00:00 10.3 24 Noroeste 40 Norte 0 -- -- 77
2019-11-26 17:00:00 10.3 24 Noroeste 41 Noroeste 0 -- -- 78
2019-11-26 16:00:00 11.1 17 Noroeste 34 Noroeste 0 -- -- 73
2019-11-26 15:00:00 12.2 14 Noroeste 35 Oeste 0 -- -- 66
2019-11-26 14:00:00 11.8 17 Noroeste 46 Noroeste 0 -- -- 67
2019-11-26 13:00:00 11.2 18 Norte 37 Norte 0 -- -- 69
2019-11-26 12:00:00 9.9 17 Norte 31 Norte 0 -- -- 77
2019-11-26 11:00:00 9.9 13 Noroeste 22 Noroeste 0 -- -- 77
2019-11-26 10:00:00 8.7 9 Noroeste 21 Norte 0 -- -- 86
2019-11-26 09:00:00 6.9 9 Noroeste 24 Noroeste 0 -- -- 94
2019-11-26 08:00:00 6.8 12 Noroeste 32 Norte 0 -- -- 94
2019-11-26 07:00:00 6.9 14 Noroeste 29 Noroeste 0 -- -- 95
2019-11-26 06:00:00 7.2 16 Noroeste 27 Noroeste 0 -- -- 94
2019-11-26 05:00:00 6.8 11 Noroeste 19 Noroeste 0 -- -- 95
2019-11-26 04:00:00 6.7 3 Norte 20 Norte 0 -- -- 94
2019-11-26 03:00:00 5.2 7 Norte 18 Norte 0 -- -- 91
2019-11-26 02:00:00 6.4 8 Norte 15 Norte 0 -- -- 83
2019-11-26 01:00:00 2.3 3 Noroeste 5 Noroeste 0 -- -- 96
2019-11-26 00:00:00 2.4 3 Noroeste 5 Norte 0 -- -- 97
2019-11-25 23:00:00 3.1 3 Noroeste 5 Noroeste 0 -- -- 96
2019-11-25 22:00:00 3.3 3 Norte 4 Norte 0 -- -- 95
2019-11-25 21:00:00 3.7 0 Calma 5 Nordeste 0 -- -- 94
2019-11-25 20:00:00 4.4 3 Norte 5 Noroeste 0 -- -- 93
2019-11-25 19:00:00 5.6 2 Norte 5 Norte 0 -- -- 89
2019-11-25 18:00:00 7.8 3 Norte 4 Norte 0 -- -- 80
2019-11-25 17:00:00 11.6 3 Sur 8 Sur 0 -- -- 67
2019-11-25 16:00:00 14.1 6 Sur 9 Este 0 -- -- 54
2019-11-25 15:00:00 13.7 3 Este 13 Sur 0 -- -- 52
2019-11-25 14:00:00 14 8 Sur 13 Sur 0 -- -- 46
2019-11-25 13:00:00 14.2 8 Sur 15 Sur 0 -- -- 44
2019-11-25 12:00:00 13 3 Sur 10 Este 0 -- -- 55
2019-11-25 11:00:00 10.3 4 Este 11 Sur 0 -- -- 61
2019-11-25 10:00:00 5.4 0 Calma 10 Norte 0 -- -- 79
2019-11-25 09:00:00 4 5 Norte 13 Norte 0 -- -- 83
2019-11-25 08:00:00 2.3 7 Norte 14 Noroeste 0 -- -- 94
2019-11-25 07:00:00 2.6 4 Noroeste 8 Noroeste 0 -- -- 93
2019-11-25 06:00:00 4.6 6 Norte 13 Norte 0 -- -- 87
2019-11-25 05:00:00 5.1 4 Norte 26 Norte 0 -- -- 84
2019-11-25 04:00:00 5 14 Norte 22 Norte 0 -- -- 85
2019-11-25 03:00:00 4.1 10 Noroeste 16 Noroeste 0 -- -- 93
2019-11-25 02:00:00 4.5 8 Norte 18 Noroeste 0 -- -- 93
2019-11-25 01:00:00 4.6 13 Noroeste 34 Noroeste 0 -- -- 93
2019-11-25 00:00:00 5.3 18 Norte 29 Norte 0 -- -- 90
2019-11-24 23:00:00 5.1 19 Norte 36 Norte 0 -- -- 91
2019-11-24 22:00:00 5.2 17 Noroeste 31 Norte 0 -- -- 91
2019-11-24 21:00:00 4.9 13 Noroeste 20 Norte 0 -- -- 91
2019-11-24 20:00:00 3.7 8 Norte 11 Norte 0 -- -- 94
2019-11-24 19:00:00 4.1 3 Noroeste 7 Oeste 0 -- -- 89
2019-11-24 18:00:00 6.8 2 Norte 5 Oeste 0 -- -- 80
2019-11-24 17:00:00 10 0 Calma 15 Sur 0 -- -- 74
2019-11-24 16:00:00 12 5 Noroeste 10 Noroeste 0 -- -- 56
2019-11-24 15:00:00 12.3 6 Sur 16 Sur 0 -- -- 70
2019-11-24 14:00:00 12.4 4 Sudoeste 17 Sur 0 -- -- 67
2019-11-24 13:00:00 11.8 9 Sur 14 Sur 0 -- -- 68
2019-11-24 12:00:00 11.7 4 Sudeste 12 Sur 0 -- -- 70
2019-11-24 11:00:00 9.2 2 Nordeste 8 Sur 0 -- -- 71
2019-11-24 10:00:00 5 2 Sudoeste 7 Norte 0 -- -- 76
2019-11-24 09:00:00 3.9 6 Norte 13 Norte 0 -- -- 74
2019-11-24 08:00:00 4.5 7 Norte 18 Norte 0 -- -- 72
2019-11-24 07:00:00 5.4 10 Norte 19 Norte 0 -- -- 64
2019-11-24 06:00:00 4.9 12 Norte 18 Noroeste 0 -- -- 68
2019-11-24 05:00:00 5.6 9 Norte 20 Norte 0 -- -- 65
2019-11-24 04:00:00 6.2 6 Norte 29 Norte 0 -- -- 64
2019-11-24 03:00:00 5.9 19 Noroeste 32 Noroeste 0 -- -- 67
2019-11-24 02:00:00 5.5 15 Noroeste 29 Noroeste 0 -- -- 72
2019-11-24 01:00:00 5.6 16 Noroeste 31 Norte 0 -- -- 77
2019-11-24 00:00:00 5.5 19 Norte 32 Norte 0 -- -- 82
2019-11-23 23:00:00 5.5 23 Norte 39 Norte 0 -- -- 84
2019-11-23 22:00:00 5.7 17 Noroeste 31 Norte 0 -- -- 85
2019-11-23 21:00:00 6.2 18 Noroeste 36 Noroeste 0 -- -- 83
2019-11-23 20:00:00 6.2 14 Noroeste 30 Oeste 0 -- -- 84
2019-11-23 19:00:00 6.5 14 Norte 25 Norte 0 -- -- 87
2019-11-23 18:00:00 6.8 13 Noroeste 33 Noroeste 0 -- -- 88
2019-11-23 17:00:00 7.7 11 Noroeste 28 Noroeste 0 -- -- 87
2019-11-23 16:00:00 9.1 17 Noroeste 36 Noroeste 0 -- -- 80
2019-11-23 15:00:00 9.1 19 Noroeste 40 Noroeste 0 -- -- 80
2019-11-23 14:00:00 8.1 22 Norte 46 Noroeste 0 -- -- 81
2019-11-23 13:00:00 9.2 22 Noroeste 45 Noroeste 0 -- -- 76
2019-11-23 12:00:00 9 26 Noroeste 44 Noroeste 0 -- -- 78
2019-11-23 11:00:00 8.3 21 Noroeste 39 Noroeste 0 -- -- 81
2019-11-23 10:00:00 7.3 22 Noroeste 44 Noroeste 0 -- -- 86
2019-11-23 09:00:00 6.9 21 Noroeste 43 Noroeste 0 -- -- 86
2019-11-23 08:00:00 6.9 19 Noroeste 48 Noroeste 0 -- -- 85
2019-11-23 07:00:00 7.5 21 Noroeste 44 Noroeste 0 -- -- 80
2019-11-23 06:00:00 8 30 Noroeste 46 Oeste 0 -- -- 75
2019-11-23 05:00:00 7.7 19 Oeste 40 Noroeste 0 -- -- 79
2019-11-23 04:00:00 7.7 26 Noroeste 47 Oeste 0 -- -- 83
2019-11-23 03:00:00 9.1 11 Oeste 22 Noroeste 0.4 -- -- 97
2019-11-23 02:00:00 9.7 4 Sudoeste 17 Sur 2 -- -- 99
2019-11-23 01:00:00 10.1 9 Sudoeste 41 Sur 3.4 -- -- 99
2019-11-23 00:00:00 9.7 12 Sudeste 32 Sur 2 -- -- 98
2019-11-22 23:00:00 9.7 12 Sudeste 33 Este 3.2 -- -- 98
2019-11-22 22:00:00 9.4 6 Sudeste 22 Sur 4.4 -- -- 97
2019-11-22 21:00:00 9.4 8 Sur 28 Sudeste 3.8 -- -- 98
2019-11-22 20:00:00 8.7 7 Sudeste 23 Sudeste 0.6 -- -- 98
2019-11-22 19:00:00 8.4 11 Sur 30 Sur 0 -- -- 95
2019-11-22 18:00:00 8.4 15 Sur 28 Sur 0 -- -- 92
2019-11-22 17:00:00 8.6 13 Sur 30 Sur 0 -- -- 87
2019-11-22 16:00:00 8.9 12 Sur 28 Sudoeste 0 -- -- 86
2019-11-22 15:00:00 9.9 14 Sur 30 Sudoeste 0 -- -- 73
2019-11-22 14:00:00 10.8 14 Sudoeste 30 Sudoeste 0 -- -- 75
2019-11-22 13:00:00 9.1 8 Sudoeste 17 Sur 0 -- -- 89
2019-11-22 12:00:00 8.2 7 Sur 15 Sur 0.2 -- -- 94
2019-11-22 11:00:00 7.9 4 Sudoeste 12 Sur 0.2 -- -- 93
2019-11-22 10:00:00 6.8 3 Sudeste 6 Sur 0.4 -- -- 94
2019-11-22 09:00:00 5.7 0 Calma 6 Sudeste 0 -- -- 84
2019-11-22 08:00:00 4.8 3 Oeste 6 Sudoeste 0 -- -- 82
2019-11-22 07:00:00 4.9 2 Sudoeste 10 Oeste 0 -- -- 78
2019-11-22 06:00:00 4.9 2 Oeste 13 Oeste 0 -- -- 77
2019-11-22 05:00:00 5.8 6 Noroeste 17 Sudoeste 0 -- -- 71
2019-11-22 04:00:00 6.2 6 Sudoeste 22 Noroeste 0 -- -- 73
2019-11-22 03:00:00 6.2 12 Noroeste 27 Oeste 0 -- -- 75
2019-11-22 02:00:00 6.5 12 Oeste 36 Noroeste 0 -- -- 73
2019-11-22 01:00:00 6.1 21 Noroeste 33 Noroeste 0 -- -- 73
2019-11-22 00:00:00 4.9 15 Noroeste 23 Noroeste 0 -- -- 78
2019-11-21 23:00:00 5.9 12 Noroeste 33 Oeste 0 -- -- 73
2019-11-21 22:00:00 6.4 16 Noroeste 33 Noroeste 0 -- -- 72
2019-11-21 21:00:00 7.1 20 Noroeste 44 Noroeste 0 -- -- 66
2019-11-21 20:00:00 6.7 19 Noroeste 45 Noroeste 0 -- -- 67
2019-11-21 19:00:00 6.8 21 Noroeste 43 Noroeste 0 -- -- 66
2019-11-21 18:00:00 6.9 23 Noroeste 44 Oeste 0 -- -- 65
2019-11-21 17:00:00 7.2 23 Noroeste 41 Noroeste 0 -- -- 65
2019-11-21 16:00:00 7.7 19 Noroeste 32 Oeste 0 -- -- 64
2019-11-21 15:00:00 9.8 17 Oeste 31 Oeste 0 -- -- 59
2019-11-21 14:00:00 10.6 14 Noroeste 28 Noroeste 0 -- -- 57
2019-11-21 13:00:00 10 12 Noroeste 24 Noroeste 0 -- -- 61
2019-11-21 12:00:00 9.6 14 Noroeste 30 Noroeste 0 -- -- 61
2019-11-21 11:00:00 8.4 12 Noroeste 24 Oeste 0 -- -- 64
2019-11-21 10:00:00 6.2 13 Noroeste 24 Noroeste 0 -- -- 71
2019-11-21 09:00:00 5.3 10 Oeste 24 Oeste 0 -- -- 74
2019-11-21 08:00:00 -- -- -- -- -- -- -- -- --
2019-11-21 07:00:00 -- -- -- -- -- -- -- -- --
2019-11-21 06:00:00 -- -- -- -- -- -- -- -- --
2019-11-21 05:00:00 -- -- -- -- -- -- -- -- --
2019-11-21 04:00:00 -- -- -- -- -- -- -- -- --
2019-11-21 03:00:00 -- -- -- -- -- -- -- -- --
2019-11-21 02:00:00 -- -- -- -- -- -- -- -- --
2019-11-21 01:00:00 -- -- -- -- -- -- -- -- --
2019-11-21 00:00:00 -- -- -- -- -- -- -- -- --
2019-11-20 23:00:00 -- -- -- -- -- -- -- -- --
2019-11-20 22:00:00 4 5 Oeste 18 Oeste 0 -- -- 82
2019-11-20 21:00:00 4.6 10 Oeste 19 Oeste 0 -- -- 77
2019-11-20 20:00:00 4.7 12 Noroeste 25 Oeste 0 -- -- 78
2019-11-20 19:00:00 5.1 4 Sudoeste 18 Sudoeste 0 -- -- 73
2019-11-20 18:00:00 5.6 10 Sudoeste 21 Sudoeste 0 -- -- 70
2019-11-20 17:00:00 6.7 10 Oeste 23 Oeste 0 -- -- 63
2019-11-20 16:00:00 8.7 7 Oeste 23 Noroeste 0 -- -- 52
2019-11-20 15:00:00 8.8 9 Oeste 32 Oeste 0 -- -- 52
2019-11-20 14:00:00 9.2 13 Oeste 36 Noroeste 0 -- -- 56
2019-11-20 13:00:00 8.7 16 Oeste 32 Oeste 0 -- -- 59
2019-11-20 12:00:00 7.6 16 Oeste 31 Oeste 0 -- -- 62
2019-11-20 11:00:00 6.5 8 Noroeste 21 Noroeste 0 -- -- 68
2019-11-20 10:00:00 3.9 12 Norte 21 Norte 0 -- -- 76
2019-11-20 09:00:00 2.5 9 Norte 27 Noroeste 0 -- -- 78
2019-11-20 08:00:00 1.7 17 Norte 27 Norte 0 -- -- 82
2019-11-20 07:00:00 1.3 15 Norte 24 Noroeste 0 -- -- 84
2019-11-20 06:00:00 0.7 13 Norte 19 Noroeste 0 -- -- 88
2019-11-20 05:00:00 -2.2 5 Norte 9 Norte 0 -- -- 96
2019-11-20 04:00:00 -2.2 3 Norte 8 Noroeste 0 -- -- 95
2019-11-20 03:00:00 -1.8 8 Noroeste 12 Noroeste 0 -- -- 98
2019-11-20 02:00:00 -2.3 3 Norte 8 Nordeste 0 -- -- 97
2019-11-20 01:00:00 -1.9 0 Calma 5 Noroeste 0 -- -- 97
2019-11-20 00:00:00 -1.7 3 Norte 6 Norte 0 -- -- 97
2019-11-19 23:00:00 -1.3 3 Norte 6 Noroeste 0 -- -- 97
2019-11-19 22:00:00 -1.3 4 Noroeste 5 Noroeste 0 -- -- 96
2019-11-19 21:00:00 -0.6 2 Norte 4 Noroeste 0 -- -- 95
2019-11-19 20:00:00 0.1 3 Norte 4 Norte 0 -- -- 94
2019-11-19 19:00:00 1.5 0 Calma 4 Norte 0 -- -- 91
2019-11-19 18:00:00 3.3 2 Norte 14 Sur 0 -- -- 85
2019-11-19 17:00:00 6 8 Sur 13 Sur 0 -- -- 77
2019-11-19 16:00:00 7.7 8 Sur 17 Sur 0 -- -- 64
2019-11-19 15:00:00 9 4 Este 16 Sur 0 -- -- 65
2019-11-19 14:00:00 8.3 7 Sur 15 Sur 0 -- -- 68
2019-11-19 13:00:00 7.6 8 Sur 17 Sur 0 -- -- 66
2019-11-19 12:00:00 7.5 5 Sur 9 Sur 0 -- -- 58
2019-11-19 11:00:00 4.9 4 Sur 8 Sur 0 -- -- 61
2019-11-19 10:00:00 2 2 Sudeste 10 Norte 0 -- -- 74
2019-11-19 09:00:00 1.2 10 Norte 27 Norte 0 -- -- 73
2019-11-19 08:00:00 0.6 14 Norte 27 Norte 0 -- -- 75
2019-11-19 07:00:00 0.3 11 Norte 23 Norte 0 -- -- 78
2019-11-19 06:00:00 0.6 11 Norte 18 Norte 0 -- -- 88
2019-11-19 05:00:00 1.2 8 Norte 17 Noroeste 0 -- -- 91
2019-11-19 04:00:00 -0.2 4 Norte 16 Noroeste 0 -- -- 89
2019-11-19 03:00:00 -0.2 5 Norte 17 Nordeste 0 -- -- 89
2019-11-19 02:00:00 -0.8 0 Calma 7 Noroeste 0 -- -- 97
2019-11-19 01:00:00 -1.3 4 Noroeste 8 Norte 0 -- -- 97
2019-11-19 00:00:00 -0.9 3 Norte 6 Norte 0 -- -- 96
2019-11-18 23:00:00 -0.2 3 Noroeste 7 Noroeste 0 -- -- 95
2019-11-18 22:00:00 0.7 3 Norte 7 Norte 0 -- -- 93
2019-11-18 21:00:00 2.8 4 Noroeste 15 Noroeste 0 -- -- 88
2019-11-18 20:00:00 4.5 6 Noroeste 11 Noroeste 0 -- -- 87
2019-11-18 19:00:00 4.6 3 Noroeste 10 Nordeste 0 -- -- 84
2019-11-18 18:00:00 5 0 Calma 12 Sudoeste 0 -- -- 78
2019-11-18 17:00:00 7.5 0 Calma 13 Sur 0 -- -- 68
2019-11-18 16:00:00 9.2 5 Noroeste 17 Noroeste 0 -- -- 59
2019-11-18 15:00:00 8.4 6 Norte 24 Norte 0 -- -- 60
2019-11-18 14:00:00 8 10 Norte 28 Noroeste 0 -- -- 62
2019-11-18 13:00:00 7 10 Nordeste 28 Nordeste 0 -- -- 70
2019-11-18 12:00:00 5 8 Nordeste 25 Nordeste 0 -- -- 84
2019-11-18 11:00:00 4.8 8 Nordeste 18 Norte 0 -- -- 84
2019-11-18 10:00:00 4.5 5 Norte 20 Nordeste 0 -- -- 88
2019-11-18 09:00:00 3.9 4 Nordeste 20 Nordeste 0 -- -- 91
2019-11-18 08:00:00 3.1 6 Norte 21 Nordeste 0 -- -- 95
2019-11-18 07:00:00 3.2 8 Nordeste 18 Norte 0 -- -- 97
2019-11-18 06:00:00 3 4 Norte 14 Nordeste 0 -- -- 98
2019-11-18 05:00:00 1.1 3 Norte 13 Norte 0 -- -- 97
2019-11-18 04:00:00 -0.2 4 Norte 8 Norte 0 -- -- 96
2019-11-18 03:00:00 1 4 Norte 9 Noroeste 0 -- -- 96
2019-11-18 02:00:00 1.9 3 Norte 13 Noroeste 0 -- -- 94
2019-11-18 01:00:00 3 3 Nordeste 10 Sudoeste 0 -- -- 92
2019-11-18 00:00:00 3.1 3 Noroeste 9 Oeste 0 -- -- 91
2019-11-17 23:00:00 4.3 4 Noroeste 10 Oeste 0 -- -- 88
2019-11-17 22:00:00 3.2 2 Sur 6 Noroeste 0 -- -- 91
2019-11-17 21:00:00 3 2 Noroeste 14 Norte 0 -- -- 87
2019-11-17 20:00:00 3.5 5 Nordeste 17 Norte 0 -- -- 83
2019-11-17 19:00:00 3 3 Oeste 12 Norte 0 -- -- 84
2019-11-17 18:00:00 3.5 6 Noroeste 16 Norte 0 -- -- 81
2019-11-17 17:00:00 5.8 7 Noroeste 13 Noroeste 0 -- -- 71
2019-11-17 16:00:00 7.3 5 Sudoeste 14 Noroeste 0 -- -- 67
2019-11-17 15:00:00 7.6 7 Norte 18 Noroeste 0 -- -- 65
2019-11-17 14:00:00 6.2 10 Norte 27 Norte 0 -- -- 66
2019-11-17 13:00:00 6.3 10 Norte 30 Noroeste 0 -- -- 62
2019-11-17 12:00:00 4.6 16 Noroeste 37 Norte 0 -- -- 68
2019-11-17 11:00:00 2.1 20 Norte 31 Norte 0 -- -- 81
2019-11-17 10:00:00 1 15 Norte 32 Noroeste 0 -- -- 84
2019-11-17 09:00:00 1.4 20 Norte 36 Noroeste 0 -- -- 81
2019-11-17 08:00:00 0.3 16 Norte 34 Noroeste 0 -- -- 87
2019-11-17 07:00:00 1 16 Norte 31 Noroeste 0 -- -- 82
2019-11-17 06:00:00 1.3 16 Noroeste 31 Oeste 0 -- -- 79
2019-11-17 05:00:00 1 15 Noroeste 27 Norte 0 -- -- 84
2019-11-17 04:00:00 1.3 18 Noroeste 33 Norte 0 -- -- 83
2019-11-17 03:00:00 0.8 14 Norte 26 Norte 0 -- -- 90
2019-11-17 02:00:00 0.7 12 Noroeste 21 Noroeste 0 -- -- 94
2019-11-17 01:00:00 0.5 11 Norte 19 Norte 0 -- -- 94
2019-11-17 00:00:00 0.8 12 Norte 17 Norte 0 -- -- 95
2019-11-16 23:00:00 0 5 Norte 12 Nordeste 0 -- -- 96
2019-11-16 22:00:00 0.1 3 Norte 20 Norte 0 -- -- 91
2019-11-16 21:00:00 0.9 15 Norte 28 Noroeste 0 -- -- 91
2019-11-16 20:00:00 1.2 19 Norte 31 Noroeste 0 -- -- 86
2019-11-16 19:00:00 1.9 18 Norte 30 Norte 0 -- -- 80
2019-11-16 18:00:00 2.8 9 Noroeste 17 Noroeste 0 -- -- 68
2019-11-16 17:00:00 5.2 9 Noroeste 21 Noroeste 0 -- -- 60
2019-11-16 16:00:00 7 10 Noroeste 19 Noroeste 0 -- -- 53
2019-11-16 15:00:00 8.9 8 Sudoeste 19 Oeste 0 -- -- 53
2019-11-16 14:00:00 7.1 12 Noroeste 23 Norte 0 -- -- 62
2019-11-16 13:00:00 6.6 14 Norte 22 Norte 0 -- -- 63
2019-11-16 12:00:00 5.5 12 Norte 22 Noroeste 0 -- -- 74
2019-11-16 11:00:00 4.4 10 Norte 20 Noroeste 0 -- -- 80
2019-11-16 10:00:00 2.4 12 Norte 18 Norte 0 -- -- 92
2019-11-16 09:00:00 0.5 7 Norte 16 Noroeste 0 -- -- 99
2019-11-16 08:00:00 -0.5 8 Norte 12 Norte 0 -- -- 98
2019-11-16 07:00:00 -2 3 Norte 8 Noroeste 0 -- -- 98
2019-11-16 06:00:00 -1.2 5 Noroeste 10 Norte 0 -- -- 97
2019-11-16 05:00:00 -2.6 2 Norte 8 Norte 0 -- -- 97
2019-11-16 04:00:00 -2.1 3 Norte 5 Noroeste 0 -- -- 97
2019-11-16 03:00:00 -1.8 0 Calma 3 Sur 0 -- -- 97
2019-11-16 02:00:00 -2.1 3 Norte 4 Noroeste 0 -- -- 96
2019-11-16 01:00:00 -1.6 0 Calma 6 Noroeste 0 -- -- 95
2019-11-16 00:00:00 -0.3 3 Noroeste 15 Norte 0 -- -- 91
2019-11-15 23:00:00 1 6 Norte 16 Noroeste 0 -- -- 91
2019-11-15 22:00:00 1.4 9 Norte 28 Norte 0 -- -- 90
2019-11-15 21:00:00 1.7 15 Norte 36 Norte 0 -- -- 89
2019-11-15 20:00:00 1.6 17 Noroeste 31 Norte 0 -- -- 90
2019-11-15 19:00:00 2 7 Noroeste 22 Noroeste 0 -- -- 86
2019-11-15 18:00:00 2.5 8 Norte 33 Oeste 0 -- -- 81
2019-11-15 17:00:00 4.1 15 Oeste 27 Oeste 0 -- -- 71
2019-11-15 16:00:00 6.1 13 Oeste 30 Oeste 0 -- -- 62
2019-11-15 15:00:00 6.6 14 Oeste 27 Oeste 0 -- -- 63
2019-11-15 14:00:00 6.2 9 Oeste 26 Noroeste 0 -- -- 67
2019-11-15 13:00:00 5.1 6 Oeste 15 Oeste 0 -- -- 78
2019-11-15 12:00:00 5.2 3 Sudoeste 8 Sur 0.2 -- -- 93
2019-11-15 11:00:00 3 3 Sur 6 Sur 0.2 -- -- 100
2019-11-15 10:00:00 0.8 0 Calma 3 Este 0 -- -- 100
2019-11-15 09:00:00 -0.5 3 Noroeste 4 Norte 0 -- -- 99
2019-11-15 08:00:00 -1.9 2 Norte 5 Norte 0 -- -- 99
2019-11-15 07:00:00 -1.5 2 Norte 4 Norte 0 -- -- 98
2019-11-15 06:00:00 -1.6 3 Norte 8 Norte 0 -- -- 98
2019-11-15 05:00:00 -1.2 3 Norte 7 Noroeste 0 -- -- 98
2019-11-15 04:00:00 -1.1 2 Noroeste 7 Norte 0 -- -- 99
2019-11-15 03:00:00 -1.2 3 Norte 8 Norte 0 -- -- 98
2019-11-15 02:00:00 -1.1 3 Noroeste 10 Noroeste 0 -- -- 97
2019-11-15 01:00:00 -0.5 3 Norte 12 Noroeste 0 -- -- 96
2019-11-15 00:00:00 0.3 10 Noroeste 14 Norte 0 -- -- 96
2019-11-14 23:00:00 1.5 5 Sudoeste 12 Sudoeste 0 -- -- 94
2019-11-14 22:00:00 2.5 4 Sur 10 Sudoeste 0 -- -- 95
2019-11-14 21:00:00 2.4 4 Sur 9 Sur 0 -- -- 98
2019-11-14 20:00:00 2.4 5 Sur 12 Este 0 -- -- 98
2019-11-14 19:00:00 2.5 3 Sudeste 8 Sudeste 0.2 -- -- 98
2019-11-14 18:00:00 2.6 2 Este 11 Norte 0 -- -- 98
2019-11-14 17:00:00 2.9 3 Este 10 Nordeste 0.6 -- -- 97
2019-11-14 16:00:00 4.1 4 Este 14 Sur 0.4 -- -- 96
2019-11-14 15:00:00 5.1 3 Sur 18 Sur 0 -- -- 94
2019-11-14 14:00:00 6 10 Sudoeste 35 Oeste 0.2 -- -- 85
2019-11-14 13:00:00 6.3 8 Oeste 34 Noroeste 0.6 -- -- 86
2019-11-14 12:00:00 6.9 19 Noroeste 33 Noroeste 0 -- -- 88
2019-11-14 11:00:00 7.2 9 Norte 21 Oeste 0 -- -- 90
2019-11-14 10:00:00 7 11 Oeste 32 Noroeste 0.4 -- -- 86
2019-11-14 09:00:00 9.1 6 Oeste 22 Oeste 0 -- -- 77
2019-11-14 08:00:00 8.7 10 Oeste 34 Oeste 0 -- -- 73
2019-11-14 07:00:00 8.8 12 Sudoeste 31 Oeste 0 -- -- 76
2019-11-14 06:00:00 8.6 14 Oeste 35 Oeste 0 -- -- 80
2019-11-14 05:00:00 8.1 14 Sudoeste 39 Oeste 0 -- -- 80
2019-11-14 04:00:00 7.7 14 Oeste 32 Oeste 0 -- -- 76
2019-11-14 03:00:00 6.6 13 Oeste 26 Oeste 0 -- -- 70
2019-11-14 02:00:00 4.5 4 Noroeste 15 Oeste 0 -- -- 84
2019-11-14 01:00:00 3.6 4 Noroeste 11 Noroeste 0 -- -- 95
2019-11-14 00:00:00 4.2 8 Noroeste 15 Noroeste 0 -- -- 96
2019-11-13 23:00:00 4.8 4 Norte 11 Oeste 0 -- -- 93
2019-11-13 22:00:00 5.5 4 Noroeste 14 Norte 0 -- -- 93
2019-11-13 21:00:00 4.2 7 Noroeste 15 Oeste 0 -- -- 98
2019-11-13 20:00:00 3.1 2 Noroeste 7 Nordeste 0 -- -- 94
2019-11-13 19:00:00 4.4 0 Calma 4 Norte 0 -- -- 91
2019-11-13 18:00:00 6.4 2 Este 8 Sur 0 -- -- 87
2019-11-13 17:00:00 7.7 4 Sur 10 Sudeste 0 -- -- 85
2019-11-13 16:00:00 8.8 4 Este 18 Norte 0 -- -- 80
2019-11-13 15:00:00 8.8 12 Norte 20 Norte 0 -- -- 75
2019-11-13 14:00:00 9.6 13 Noroeste 24 Norte 0 -- -- 72
2019-11-13 13:00:00 8.2 9 Norte 14 Noroeste 0 -- -- 79
2019-11-13 12:00:00 7.9 4 Norte 8 Noroeste 0 -- -- 83
2019-11-13 11:00:00 6.4 2 Oeste 5 Noroeste 0 -- -- 89
2019-11-13 10:00:00 5.2 0 Calma 4 Norte 0 -- -- 99
2019-11-13 09:00:00 4.1 0 Calma 4 Noroeste 0 -- -- 99
2019-11-13 08:00:00 2.6 3 Noroeste 4 Nordeste 0 -- -- 99
2019-11-13 07:00:00 1.8 2 Nordeste 4 Nordeste 0 -- -- 98
2019-11-13 06:00:00 0.7 0 Calma 8 Norte 0 -- -- 98
2019-11-13 05:00:00 0.1 4 Noroeste 5 Noroeste 0 -- -- 96
2019-11-13 04:00:00 0.5 4 Noroeste 7 Norte 0 -- -- 96
2019-11-13 03:00:00 1.1 3 Norte 7 Noroeste 0 -- -- 95
2019-11-13 02:00:00 2.9 3 Sudoeste 12 Noroeste 0 -- -- 91
2019-11-13 01:00:00 2.2 9 Noroeste 13 Noroeste 0 -- -- 95
2019-11-13 00:00:00 1.5 2 Oeste 5 Oeste 0 -- -- 95
2019-11-12 23:00:00 2 0 Calma 4 Noroeste 0 -- -- 94
2019-11-12 22:00:00 2.5 2 Noroeste 4 Norte 0 -- -- 94
2019-11-12 21:00:00 2.7 0 Calma 4 Nordeste 0 -- -- 94
2019-11-12 20:00:00 3.1 0 Calma 6 Nordeste 0 -- -- 92
2019-11-12 19:00:00 3.6 3 Noroeste 6 Nordeste 0 -- -- 89
2019-11-12 18:00:00 5.8 3 Noroeste 6 Noroeste 0 -- -- 80
2019-11-12 17:00:00 9.5 3 Este 12 Sur 0 -- -- 66
2019-11-12 16:00:00 10.7 5 Sur 15 Sudoeste 0 -- -- 64
2019-11-12 15:00:00 11.1 9 Sur 18 Sudoeste 0 -- -- 60
2019-11-12 14:00:00 10.9 9 Sur 17 Sur 0 -- -- 56
2019-11-12 13:00:00 10.7 9 Sur 16 Sudoeste 0 -- -- 56
2019-11-12 12:00:00 10.6 8 Sur 14 Sudeste 0 -- -- 45
2019-11-12 11:00:00 9.1 4 Sudeste 16 Noroeste 0 -- -- 55
2019-11-12 10:00:00 7 10 Norte 20 Norte 0 -- -- 45
2019-11-12 09:00:00 6.3 8 Noroeste 20 Norte 0 -- -- 52
2019-11-12 08:00:00 5.2 6 Norte 15 Noroeste 0 -- -- 53
2019-11-12 07:00:00 4.3 12 Noroeste 22 Noroeste 0 -- -- 60
2019-11-12 06:00:00 4.2 5 Norte 13 Norte 0 -- -- 58
2019-11-12 05:00:00 0.4 4 Norte 7 Noroeste 0 -- -- 84
2019-11-12 04:00:00 0 0 Calma 5 Noroeste 0 -- -- 84
2019-11-12 03:00:00 0.2 2 Noroeste 4 Norte 0 -- -- 85
2019-11-12 02:00:00 0.5 0 Calma 6 Este 0 -- -- 85
2019-11-12 01:00:00 0.7 0 Calma 6 Nordeste 0 -- -- 84
2019-11-12 00:00:00 1.4 2 Noroeste 12 Norte 0 -- -- 82
2019-11-11 23:00:00 1.7 5 Norte 10 Norte 0 -- -- 81
2019-11-11 22:00:00 3.6 5 Noroeste 16 Norte 0 -- -- 69
2019-11-11 21:00:00 5 11 Norte 19 Norte 0 -- -- 61
2019-11-11 20:00:00 5.3 14 Noroeste 22 Norte 0 -- -- 62
2019-11-11 19:00:00 5.6 9 Norte 26 Noroeste 0 -- -- 65
2019-11-11 18:00:00 5.5 10 Norte 15 Norte 0 -- -- 61
2019-11-11 17:00:00 8.5 3 Noroeste 10 Sur 0 -- -- 55
2019-11-11 16:00:00 11.2 8 Sur 13 Sur 0 -- -- 44
2019-11-11 15:00:00 12.6 9 Sur 14 Sur 0 -- -- 45
2019-11-11 14:00:00 13.4 6 Sur 14 Noroeste 0 -- -- 38
2019-11-11 13:00:00 13 3 Noroeste 21 Norte 0 -- -- 25
2019-11-11 12:00:00 10.6 10 Norte 17 Norte 0 -- -- 27
2019-11-11 11:00:00 8.7 8 Noroeste 12 Noroeste 0.2 -- -- 38
2019-11-11 10:00:00 5.7 4 Norte 11 Norte 0 -- -- 68
2019-11-11 09:00:00 3.1 4 Norte 9 Noroeste 0 -- -- 76
2019-11-11 08:00:00 3.5 5 Norte 21 Noroeste 0 -- -- 55
2019-11-11 07:00:00 3.2 14 Norte 24 Norte 0 -- -- 67
2019-11-11 06:00:00 1.8 10 Norte 16 Norte 0 -- -- 72
2019-11-11 05:00:00 -1.3 4 Nordeste 9 Norte 0 -- -- 94
2019-11-11 04:00:00 -0.3 5 Norte 14 Noroeste 0 -- -- 91
2019-11-11 03:00:00 1.4 8 Norte 18 Norte 0 -- -- 88
2019-11-11 02:00:00 2.1 12 Norte 19 Noroeste 0 -- -- 87
2019-11-11 01:00:00 1.1 10 Norte 15 Norte 0 -- -- 99
2019-11-11 00:00:00 -0.4 0 Calma 6 Nordeste 0 -- -- 97
2019-11-10 23:00:00 -0.4 0 Calma 5 Nordeste 0 -- -- 96
2019-11-10 22:00:00 0.5 0 Calma 6 Este 0 -- -- 96
2019-11-10 21:00:00 0.4 2 Noroeste 8 Norte 0 -- -- 96
2019-11-10 20:00:00 1.3 6 Norte 9 Norte 0 -- -- 97
2019-11-10 19:00:00 2.2 3 Noroeste 6 Nordeste 0 -- -- 92
2019-11-10 18:00:00 4.2 2 Noroeste 5 Sudoeste 0 -- -- 88
2019-11-10 17:00:00 6.5 0 Calma 5 Sur 0 -- -- 82
2019-11-10 16:00:00 7.7 3 Este 12 Sur 0 -- -- 77
2019-11-10 15:00:00 9 4 Sudeste 12 Sur 0 -- -- 74
2019-11-10 14:00:00 8.8 6 Noroeste 18 Norte 0 -- -- 54
2019-11-10 13:00:00 7.6 4 Noroeste 11 Noroeste 0 -- -- 68
2019-11-10 12:00:00 6.9 6 Norte 18 Noroeste 0 -- -- 73
2019-11-10 11:00:00 5.3 10 Norte 26 Noroeste 0 -- -- 90
2019-11-10 10:00:00 4.6 13 Norte 25 Norte 0 -- -- 96
2019-11-10 09:00:00 3.6 10 Norte 16 Noroeste 0 -- -- 98
2019-11-10 08:00:00 3 0 Calma 5 Norte 0 -- -- 98
2019-11-10 07:00:00 3.2 3 Noroeste 9 Nordeste 0 -- -- 97
2019-11-10 06:00:00 3.5 3 Oeste 33 Noroeste 1 -- -- 96
2019-11-10 05:00:00 3.5 9 Noroeste 21 Norte 1.4 -- -- 95
2019-11-10 04:00:00 4 9 Oeste 25 Oeste 3.8 -- -- 89
2019-11-10 03:00:00 4.7 10 Norte 21 Noroeste 0.8 -- -- 95
2019-11-10 02:00:00 5.6 8 Noroeste 19 Noroeste 0 -- -- 86
2019-11-10 01:00:00 5.8 13 Norte 24 Noroeste 0 -- -- 83
2019-11-10 00:00:00 5.8 11 Norte 24 Norte 0 -- -- 83
2019-11-09 23:00:00 6 4 Norte 18 Norte 0 -- -- 82
2019-11-09 22:00:00 6.1 3 Este 20 Oeste 0 -- -- 83
2019-11-09 21:00:00 6.3 7 Oeste 24 Noroeste 0 -- -- 82
2019-11-09 20:00:00 6.3 8 Noroeste 31 Noroeste 0 -- -- 79
2019-11-09 19:00:00 6.3 15 Noroeste 27 Noroeste 0 -- -- 76
2019-11-09 18:00:00 6.2 2 Sur 8 Sur 0 -- -- 74
2019-11-09 17:00:00 7.3 6 Norte 22 Noroeste 0 -- -- 66
2019-11-09 16:00:00 7.8 9 Noroeste 23 Norte 0 -- -- 60
2019-11-09 15:00:00 7.7 15 Noroeste 30 Noroeste 0 -- -- 66
2019-11-09 14:00:00 10.1 15 Noroeste 31 Norte 0 -- -- 53
2019-11-09 13:00:00 10.8 14 Oeste 26 Noroeste 0 -- -- 51
2019-11-09 12:00:00 10.5 12 Oeste 24 Oeste 0 -- -- 45
2019-11-09 11:00:00 7.7 8 Noroeste 22 Norte 0 -- -- 56
2019-11-09 10:00:00 5.8 3 Norte 17 Noroeste 0 -- -- 58
2019-11-09 09:00:00 3.8 8 Norte 18 Norte 0 -- -- 66
2019-11-09 08:00:00 2.7 13 Norte 20 Norte 0 -- -- 65
2019-11-09 07:00:00 2.6 9 Norte 19 Norte 0 -- -- 65
2019-11-09 06:00:00 1.4 6 Norte 14 Norte 0 -- -- 72
2019-11-09 05:00:00 1.8 9 Noroeste 24 Norte 0 -- -- 75
2019-11-09 04:00:00 1.6 13 Nordeste 22 Nordeste 0 -- -- 80
2019-11-09 03:00:00 1.2 9 Norte 21 Norte 0 -- -- 88
2019-11-09 02:00:00 1.7 12 Noroeste 29 Noroeste 0 -- -- 87
2019-11-09 01:00:00 1.4 12 Noroeste 26 Norte 0 -- -- 91
2019-11-09 00:00:00 1.7 12 Noroeste 27 Noroeste 0 -- -- 89
2019-11-08 23:00:00 2.4 18 Noroeste 35 Noroeste 0 -- -- 86
2019-11-08 22:00:00 2.9 12 Noroeste 31 Noroeste 0 -- -- 84
2019-11-08 21:00:00 3.3 14 Noroeste 29 Noroeste 0 -- -- 82
2019-11-08 20:00:00 4.2 13 Noroeste 28 Noroeste 0 -- -- 79
2019-11-08 19:00:00 4.9 8 Norte 28 Noroeste 0 -- -- 78
2019-11-08 18:00:00 5.7 18 Noroeste 38 Norte 0 -- -- 74
2019-11-08 17:00:00 6.5 13 Noroeste 33 Oeste 0 -- -- 70
2019-11-08 16:00:00 7.1 13 Noroeste 29 Noroeste 0 -- -- 67
2019-11-08 15:00:00 7.3 14 Noroeste 28 Noroeste 0 -- -- 66
2019-11-08 14:00:00 8.2 9 Norte 22 Noroeste 0 -- -- 62
2019-11-08 13:00:00 7.7 10 Norte 21 Noroeste 0 -- -- 67
2019-11-08 12:00:00 7.4 9 Noroeste 24 Noroeste 0 -- -- 67
2019-11-08 11:00:00 6 5 Norte 19 Noroeste 0 -- -- 74
2019-11-08 10:00:00 3.5 12 Norte 23 Norte 0 -- -- 82
2019-11-08 09:00:00 2.4 13 Norte 25 Noroeste 0 -- -- 87
2019-11-08 08:00:00 1.5 15 Norte 29 Norte 0 -- -- 94
2019-11-08 07:00:00 1.5 10 Noroeste 27 Norte 0 -- -- 93
2019-11-08 06:00:00 1.8 18 Norte 28 Noroeste 0 -- -- 93
2019-11-08 05:00:00 1.9 5 Sudoeste 15 Sudoeste 0 -- -- 90
2019-11-08 04:00:00 1.5 3 Norte 17 Noroeste 0 -- -- 93
2019-11-08 03:00:00 1.1 6 Norte 12 Noroeste 0 -- -- 98
2019-11-08 02:00:00 0.8 3 Noroeste 5 Sudoeste 0 -- -- 97
2019-11-08 01:00:00 0.7 2 Norte 6 Noroeste 0 -- -- 96
2019-11-08 00:00:00 1.4 2 Sudoeste 5 Nordeste 0 -- -- 95
2019-11-07 23:00:00 3 2 Noroeste 5 Noroeste 0 -- -- 93
2019-11-07 22:00:00 5.1 4 Sudoeste 14 Sur 0 -- -- 94
2019-11-07 21:00:00 6.1 7 Sur 13 Sur 0 -- -- 95
2019-11-07 20:00:00 6.3 0 Calma 12 Oeste 0 -- -- 93
2019-11-07 19:00:00 7.5 4 Oeste 9 Sur 0 -- -- 90
2019-11-07 18:00:00 8.2 4 Sudoeste 9 Sudoeste 0 -- -- 89
2019-11-07 17:00:00 8.6 2 Este 10 Este 0 -- -- 86
2019-11-07 16:00:00 9.6 0 Calma 13 Noroeste 0 -- -- 81
2019-11-07 15:00:00 9.1 8 Norte 15 Noroeste 0 -- -- 84
2019-11-07 14:00:00 8.4 6 Sudoeste 14 Sur 0 -- -- 80
2019-11-07 13:00:00 8.5 5 Sur 11 Sur 0 -- -- 81
2019-11-07 12:00:00 9.2 5 Sudeste 12 Sur 0 -- -- 73
2019-11-07 11:00:00 9.9 6 Sur 20 Oeste 0 -- -- 72
2019-11-07 10:00:00 9.6 8 Oeste 20 Noroeste 0 -- -- 74
2019-11-07 09:00:00 7.6 10 Norte 27 Norte 0 -- -- 78
2019-11-07 08:00:00 5.6 11 Norte 44 Noroeste 0 -- -- 84
2019-11-07 07:00:00 5.5 23 Noroeste 43 Noroeste 0 -- -- 85
2019-11-07 06:00:00 5.8 21 Noroeste 41 Oeste 0 -- -- 83
2019-11-07 05:00:00 6.4 10 Noroeste 35 Oeste 0 -- -- 79
2019-11-07 04:00:00 6.8 21 Oeste 44 Noroeste 0 -- -- 78
2019-11-07 03:00:00 6.3 25 Noroeste 44 Oeste 0 -- -- 83
2019-11-07 02:00:00 4.6 12 Norte 19 Norte 0 -- -- 96
2019-11-07 01:00:00 4.1 4 Norte 8 Noroeste 0 -- -- 97
2019-11-07 00:00:00 3.8 4 Noroeste 8 Oeste 0 -- -- 94
2019-11-06 23:00:00 4.6 3 Sudoeste 6 Norte 0 -- -- 96
2019-11-06 22:00:00 4.9 0 Calma 5 Noroeste 0 -- -- 93
2019-11-06 21:00:00 6.1 3 Sudeste 6 Nordeste 0 -- -- 92
2019-11-06 20:00:00 6.6 3 Este 5 Este 0 -- -- 93
2019-11-06 19:00:00 6.7 3 Norte 9 Sur 0 -- -- 89
2019-11-06 18:00:00 8.7 8 Sur 14 Sur 0 -- -- 82
2019-11-06 17:00:00 10.8 2 Nordeste 9 Noroeste 0 -- -- 73
2019-11-06 16:00:00 10.2 6 Norte 18 Noroeste 0 -- -- 69
2019-11-06 15:00:00 11.6 9 Noroeste 17 Norte 0 -- -- 61
2019-11-06 14:00:00 11.4 9 Noroeste 17 Noroeste 0 -- -- 59
2019-11-06 13:00:00 9.1 5 Norte 28 Norte 0 -- -- 71
2019-11-06 12:00:00 9.7 10 Norte 22 Noroeste 0 -- -- 67
2019-11-06 11:00:00 8 8 Norte 26 Norte 0 -- -- 70
2019-11-06 10:00:00 5.5 15 Norte 27 Norte 0 -- -- 80
2019-11-06 09:00:00 4.7 13 Norte 29 Noroeste 0 -- -- 82
2019-11-06 08:00:00 3.9 12 Norte 22 Norte 0 -- -- 85
2019-11-06 07:00:00 4.1 13 Norte 28 Norte 0 -- -- 85
2019-11-06 06:00:00 4.2 11 Norte 21 Noroeste 0 -- -- 84
2019-11-06 05:00:00 4.2 16 Norte 28 Norte 0 -- -- 85
2019-11-06 04:00:00 4.4 16 Norte 28 Norte 0 -- -- 85
2019-11-06 03:00:00 4.5 18 Norte 31 Noroeste 0 -- -- 85
2019-11-06 02:00:00 4.8 14 Noroeste 37 Noroeste 0 -- -- 84
2019-11-06 01:00:00 5.1 10 Noroeste 28 Oeste 0 -- -- 83
2019-11-06 00:00:00 5.7 5 Sudoeste 17 Sur 0 -- -- 78